#timestamp,LO_Frequency,Hit,StdDev 
1701306015.4,286046999.7,N
1701306035.3,286047002.7,N
1701306055.1,286047001.9,N
1701306056.0,286047001.9,N
1701306075.8,286047003.9,Y
1701306095.7,286047002.3,P
1701306115.5,286047000.2,N
1701306135.4,286047002.8,P
1701306155.2,286047002.8,N
1701306175.0,286047000.3,N
1701306175.9,286047000.3,N
1701306195.1,286047000.9,N
1701306215.8,286047001.1,N
1701306235.7,286046999.6,N
1701306255.5,286046999.2,N
1701306275.4,286046997.3,N
1701306295.2,286046998.3,N
1701306315.0,286046998.1,N
1701306316.0,286046998.1,N
1701306335.8,286046998.6,N
1701306355.6,286046998.6,N
1701306375.5,286047000.9,N
1701306395.3,286046998.1,N
1701306415.1,286047000.8,N
1701306435.9,286047000.3,N
1701306455.7,286046999.9,N
1701306475.6,286047000.3,N
1701306495.4,286047000.7,N
1701306515.2,286047000.5,N
1701306535.1,286046998.2,N
1701306536.0,286046998.2,N
1701306555.8,286046998.1,N
1701306575.6,286046999.1,N
1701306595.5,286046998.6,N
1701306615.3,286046998.2,N
1701306635.2,286046998.6,N
1701306655.9,286046998.5,N
1701306675.7,286047001.1,N
1701306695.6,286047002.8,N
1701306715.4,286047000.6,N
1701306735.2,286046998.3,N
1701306755.1,286046998.1,N
1701306756.0,286046998.1,N
1701306775.8,286046998.1,N
1701306795.7,286046999.9,N
1701306815.5,286047000.5,N
1701306835.3,286047000.6,N
1701306855.2,286047000.9,N
1701306875.0,286046999.9,N
1701306875.9,286046999.9,N
1701306895.8,286046999.7,N
1701306915.6,286047002.2,N
1701306935.4,286047000.2,N
1701306955.3,286047001.8,N
1701306975.1,286047001.5,N
1701306995.9,286047004.3,Y
1701307015.7,286047003.1,P
1701307035.5,286047001.9,N
1701307055.4,286047003.5,N
1701307105.2,286047002.4,E
1701307115.2,286047000.2,N
1701307135.9,286046998.1,P
1701307155.7,286047001.2,N
1701307175.6,286046998.5,N
1701307195.4,286046998.7,N
1701307215.2,286047000.5,N
1701307235.1,286047001.2,N
1701307236.0,286047001.2,N
1701307255.8,286047000.0,N
1701307275.7,286047000.6,N
1701307295.5,286047000.3,N
1701307315.3,286047000.8,N
1701307335.2,286047002.8,N
1701307355.0,286047002.3,N
1701307355.9,286047002.3,N
1701307375.7,286047002.7,N
1701307395.6,286047000.2,N
1701307415.4,286047001.8,N
1701307435.3,286047001.9,N
1701307455.1,286047002.2,N
1701307456.0,286047002.2,N
1701307475.8,286046999.7,N
1701307495.7,286047001.8,N
1701307515.5,286047002.0,N
1701307535.4,286047003.8,N
1701307555.2,286047003.7,N
1701307575.0,286047004.1,N
1701307575.9,286047004.1,N
1701307595.8,286047001.7,N
1701307615.6,286047001.6,N
1701307635.4,286047004.1,N
1701307655.3,286047001.6,N
1701307675.1,286047003.9,N
1701307695.9,286047001.3,N
1701307715.7,286047004.0,N
1701307735.5,286047003.2,N
1701307755.4,286047003.3,N
1701307775.2,286047003.6,N
1701307795.1,286047004.0,Y
1701307796.0,286047004.0,P
1701307815.8,286046999.7,N
1701307835.6,286046999.7,N
1701307855.5,286047002.2,N
1701307875.3,286047002.2,N
1701307895.2,286047002.0,N
1701307915.9,286047002.6,N
1701307935.7,286047001.8,N
1701307955.6,286047002.7,N
1701307975.4,286047000.2,N
1701307995.2,286047000.2,N
1701308015.1,286046998.6,N
1701308016.0,286046998.6,N
1701308035.8,286047001.0,N
1701308055.7,286046998.6,N
1701308075.5,286046999.9,N
1701308095.3,286047000.3,N
1701308115.2,286047002.6,N
1701308135.0,286047001.7,N
1701308135.9,286047001.7,N
1701308155.7,286047001.3,N
1701308175.6,286047001.7,N
1701308195.4,286047004.1,N
1701308215.3,286047004.3,N
1701308235.1,286047001.4,N
1701308236.0,286047001.4,N
1701308255.8,286047003.7,N
1701308275.7,286047006.0,Y
1701308295.5,286047002.1,P
1701308315.4,286047002.4,P
1701308335.2,286047001.6,P
1701308355.0,286047002.4,Y
1701308355.9,286047002.4,P
1701308375.8,286046998.4,P
1701308395.6,286047000.8,N
1701308415.4,286047000.3,N
1701308435.3,286047001.0,N
1701308455.1,286046998.6,N
1701308475.9,286046998.1,N
1701308495.7,286047000.7,N
1701308515.5,286046998.5,N
1701308535.4,286047001.1,N
1701308555.2,286046999.2,N
1701308575.0,286046998.6,N
1701308575.9,286046998.6,N
1701308595.8,286046998.4,N
1701308615.6,286046998.6,N
1701308635.5,286047001.0,N
1701308655.3,286047000.4,N
1701308675.1,286047000.9,N
1701308695.9,286046998.2,N
1701308715.7,286046998.6,N
1701308735.6,286046998.9,N
1701308755.4,286046998.2,N
1701308775.2,286046998.1,N
1701308795.1,286046998.4,N
1701308796.0,286046998.4,N
1701308815.8,286046998.7,N
1701308835.6,286046998.6,N
1701308855.5,286047001.2,N
1701308875.3,286046998.6,N
1701308895.2,286047000.9,N
1701308915.9,286046999.8,N
1701308935.7,286047002.5,N
1701308955.6,286047002.4,N
1701308975.4,286047002.1,N
1701308995.2,286047000.5,N
1701309015.1,286047000.0,N
1701309016.0,286047000.0,N
1701309035.8,286046999.9,N
1701309055.7,286046999.8,N
1701309075.5,286047001.7,N
1701309095.4,286047003.9,N
1701309115.2,286047003.3,N
1701309135.0,286047005.8,Y
1701309135.9,286047005.8,P
1701309155.8,286047005.9,N
1701309175.6,286047003.4,N
1701309195.4,286047004.3,N
1701309215.3,286047002.0,N
1701309235.1,286047002.1,N
1701309255.9,286047002.5,N
1701309275.7,286046999.7,N
1701309295.5,286047000.1,N
1701309315.4,286046999.8,N
1701309335.2,286047001.6,N
1701309355.0,286047000.1,N
1701309355.9,286047000.1,N
1701309375.8,286047002.5,N
1701309395.6,286047004.3,N
1701309415.5,286047001.3,N
1701309435.3,286047004.0,N
1701309455.1,286047001.7,N
1701309475.9,286047004.4,N
1701309495.7,286047004.3,N
1701309515.6,286047001.7,N
1701309535.4,286047001.7,N
1701309555.2,286047001.4,N
1701309575.1,286047002.4,N
1701309576.0,286047002.4,N
1701309595.8,286047002.4,N
